| time (UTC) | temp C | wind direction | speed KPH | gust KPH | rain 1hr cm | rain 24hr cm | rain mn cm | humidity % | barometer mb |
| 20260506184606 | 10 | 68 | 0.0 | 8.0 | 0.00 | 0.00 | 0.00 | 66 | 1010.4 |
| 20260506183600 | 10 | 23 | 0.0 | 9.7 | 0.00 | 0.00 | 0.00 | 64 | 1010.3 |
| 20260506182553 | 11 | 45 | 0.0 | 8.0 | 0.00 | 0.00 | 0.00 | 64 | 1010.2 |
| 20260506181546 | 11 | 45 | 0.0 | 9.7 | 0.00 | 0.00 | 0.00 | 64 | 1010.1 |
| 20260506180539 | 11 | 68 | 0.0 | 9.7 | 0.00 | 0.00 | 0.00 | 63 | 1010.0 |
| 20260506175533 | 11 | 45 | 0.0 | 9.7 | 0.00 | 0.00 | 0.00 | 62 | 1009.9 |
| 20260506174526 | 11 | 68 | 1.6 | 11.3 | 0.00 | 0.00 | 0.00 | 59 | 1009.9 |
| 20260506173520 | 12 | 45 | 1.6 | 17.7 | 0.00 | 0.00 | 0.00 | 57 | 1009.9 |
| 20260506172513 | 12 | 45 | 4.8 | 14.5 | 0.00 | 0.00 | 0.00 | 56 | 1009.8 |
| 20260506171506 | 13 | 45 | 4.8 | 14.5 | 0.00 | 0.00 | 0.00 | 56 | 1009.8 |
| 20260506170459 | 13 | 45 | 0.0 | 17.7 | 0.00 | 0.00 | 0.00 | 55 | 1009.9 |
| 20260506165453 | 13 | 45 | 0.0 | 8.0 | 0.00 | 0.00 | 0.00 | 53 | 1010.0 |
| 20260506164446 | 13 | 68 | 3.2 | 14.5 | 0.00 | 0.00 | 0.00 | 53 | 1010.0 |
| 20260506163440 | 14 | 113 | 0.0 | 14.5 | 0.00 | 0.00 | 0.00 | 51 | 1010.0 |
| 20260506162434 | 14 | 23 | 4.8 | 16.1 | 0.00 | 0.00 | 0.00 | 50 | 1009.8 |
| 20260506161431 | 14 | 68 | 3.2 | 11.3 | 0.00 | 0.00 | 0.00 | 48 | 1009.8 |
| 20260506160422 | 15 | 68 | 1.6 | 17.7 | 0.00 | 0.00 | 0.00 | 45 | 1009.8 |
| 20260506155416 | 16 | 68 | 4.8 | 17.7 | 0.00 | 0.00 | 0.00 | 43 | 1009.8 |
| 20260506154411 | 19 | 68 | 0.0 | 4.8 | 0.00 | 0.00 | 0.00 | 44 | 1009.5 |
| 20260506153402 | 17 | 203 | 0.0 | 0.0 | 0.00 | 0.00 | 0.00 | 42 | 1009.7 |
| 20260506152356 | 16 | 203 | 0.0 | 0.0 | 0.00 | 0.00 | 0.00 | 40 | 1009.7 |
| 20260506151351 | 17 | 203 | 0.0 | 0.0 | 0.00 | 0.00 | 0.00 | 40 | 1009.8 |
| 20260506150342 | 17 | 203 | 0.0 | 0.0 | 0.00 | 0.00 | 0.00 | 40 | 1009.8 |
| 20260506145336 | 17 | 203 | 0.0 | 4.8 | 0.00 | 0.00 | 0.00 | 39 | 1009.8 |
| 20260506144331 | 21 | 203 | 0.0 | 3.2 | 0.00 | 0.00 | 0.00 | 37 | 1009.7 |
| 20260506143322 | 20 | 203 | 0.0 | 4.8 | 0.00 | 0.00 | 0.00 | 40 | 1009.9 |
| 20260506142322 | 19 | 203 | 0.0 | 0.0 | 0.00 | 0.00 | 0.00 | 38 | 1010.1 |
| 20260506141311 | 20 | 203 | 1.6 | 8.0 | 0.00 | 0.00 | 0.00 | 39 | 1010.2 |
| 20260506140302 | 20 | 315 | 0.0 | 4.8 | 0.00 | 0.00 | 0.00 | 42 | 1010.2 |
| 20260506135255 | 20 | 225 | 0.0 | 3.2 | 0.00 | 0.00 | 0.00 | 38 | 1010.3 |
| 20260506134251 | 20 | 270 | 0.0 | 6.4 | 0.00 | 0.00 | 0.00 | 40 | 1010.4 |
| 20260506133241 | 21 | 270 | 0.0 | 0.0 | 0.00 | 0.00 | 0.00 | 41 | 1010.4 |
| 20260506132234 | 20 | 270 | 0.0 | 4.8 | 0.00 | 0.00 | 0.00 | 39 | 1010.5 |
| 20260506131227 | 19 | 270 | 0.0 | 3.2 | 0.00 | 0.00 | 0.00 | 38 | 1010.6 |
| 20260506130221 | 18 | 270 | 0.0 | 4.8 | 0.00 | 0.00 | 0.00 | 41 | 1010.7 |
| 20260506125214 | 21 | 248 | 1.6 | 4.8 | 0.00 | 0.00 | 0.00 | 40 | 1010.7 |
| 20260506124207 | 20 | 203 | 0.0 | 6.4 | 0.00 | 0.00 | 0.00 | 40 | 1010.8 |
| 20260506123201 | 20 | 180 | 1.6 | 8.0 | 0.00 | 0.00 | 0.00 | 42 | 1010.8 |
| 20260506122154 | 19 | 203 | 0.0 | 1.6 | 0.00 | 0.00 | 0.00 | 39 | 1010.9 |
| 20260506121147 | 20 | 225 | 0.0 | 9.7 | 0.00 | 0.00 | 0.00 | 40 | 1010.9 |
| 20260506120140 | 18 | 270 | 0.0 | 8.0 | 0.00 | 0.00 | 0.00 | 38 | 1010.9 |
| 20260506115134 | 20 | 203 | 0.0 | 0.0 | 0.00 | 0.00 | 0.00 | 41 | 1010.9 |
| 20260506114127 | 19 | 225 | 0.0 | 3.2 | 0.00 | 0.00 | 0.00 | 42 | 1011.2 |
| 20260506113119 | 18 | 203 | 1.6 | 11.3 | 0.00 | 0.00 | 0.00 | 42 | 1011.3 |
| 20260506112112 | 18 | 225 | 0.0 | 0.0 | 0.00 | 0.00 | 0.00 | 44 | 1011.3 |
| 20260506110119 | 16 | 225 | 0.0 | 0.0 | 0.00 | 0.00 | 0.00 | 45 | 1011.5 |
| 20260506105112 | 17 | 225 | 1.6 | 6.4 | 0.00 | 0.00 | 0.00 | 49 | 1011.6 |
| 20260506104105 | 16 | 225 | 0.0 | 6.4 | 0.00 | 0.00 | 0.00 | 47 | 1011.8 |
| 20260506103058 | 15 | 158 | 0.0 | 0.0 | 0.00 | 0.00 | 0.00 | 51 | 1011.8 |
| 20260506102053 | 15 | 225 | 0.0 | 0.0 | 0.00 | 0.00 | 0.00 | 49 | 1011.8 |
| 20260506100037 | 12 | 248 | 0.0 | 0.0 | 0.00 | 0.00 | 0.00 | 53 | 1012.1 |
| 20260506095027 | 13 | 270 | 0.0 | 0.0 | 0.00 | 0.00 | 0.00 | 55 | 1012.0 |
| 20260506094019 | 13 | 270 | 0.0 | 0.0 | 0.00 | 0.00 | 0.00 | 54 | 1011.9 |
| 20260506093013 | 11 | 270 | 0.0 | 0.0 | 0.00 | 0.00 | 0.00 | 58 | 1012.0 |
| 20260506092005 | 13 | 270 | 0.0 | 0.0 | 0.00 | 0.00 | 0.00 | 57 | 1011.8 |
| 20260506090957 | 10 | 315 | 0.0 | 0.0 | 0.00 | 0.00 | 0.00 | 62 | 1012.0 |
| 20260506085953 | 10 | 315 | 0.0 | 1.6 | 0.00 | 0.00 | 0.00 | 66 | 1012.0 |
| 20260506084942 | 10 | 113 | 0.0 | 0.0 | 0.00 | 0.00 | 0.00 | 67 | 1012.0 |
| 20260506083936 | 8 | 68 | 0.0 | 0.0 | 0.00 | 0.00 | 0.00 | 68 | 1012.0 |
| 20260506082928 | 8 | 45 | 0.0 | 6.4 | 0.00 | 0.00 | 0.00 | 75 | 1012.0 |
| 20260506081921 | 7 | 45 | 0.0 | 0.0 | 0.00 | 0.00 | 0.00 | 79 | 1012.2 |
| 20260506072845 | 5 | 338 | 0.0 | 0.0 | 0.00 | 0.00 | 0.00 | 99 | 1012.5 |
| 20260506071838 | 4 | 338 | 0.0 | 0.0 | 0.00 | 0.00 | 0.00 | 99 | 1012.5 |
| 20260506070833 | 3 | 338 | 0.0 | 0.0 | 0.00 | 0.00 | 0.00 | 99 | 1012.6 |
| 20260506050703 | 1 | 338 | 0.0 | 0.0 | 0.00 | 0.00 | 0.00 | 99 | 1012.2 |
| 20260506044652 | 1 | 338 | 0.0 | 0.0 | 0.00 | 0.00 | 0.00 | 99 | 1012.2 |
| 20260506043642 | 1 | 338 | 0.0 | 0.0 | 0.00 | 0.00 | 0.00 | 99 | 1012.2 |
| 20260506042635 | 1 | 338 | 0.0 | 0.0 | 0.00 | 0.00 | 0.00 | 99 | 1012.2 |
| 20260506041628 | 1 | 338 | 0.0 | 0.0 | 0.00 | 0.00 | 0.00 | 99 | 1012.1 |
| 20260506040620 | 1 | 338 | 0.0 | 0.0 | 0.00 | 0.00 | 0.00 | 99 | 1012.1 |
| 20260506035614 | 1 | 338 | 0.0 | 0.0 | 0.00 | 0.00 | 0.00 | 99 | 1012.2 |
| 20260506034607 | 1 | 338 | 0.0 | 0.0 | 0.00 | 0.00 | 0.00 | 99 | 1012.1 |
| 20260506033600 | 2 | 338 | 0.0 | 0.0 | 0.00 | 0.00 | 0.00 | 99 | 1012.2 |
| 20260506032553 | 1 | 338 | 0.0 | 0.0 | 0.00 | 0.00 | 0.00 | 99 | 1012.3 |
| 20260506031546 | 2 | 338 | 0.0 | 0.0 | 0.00 | 0.00 | 0.00 | 99 | 1012.2 |
| 20260506025533 | 2 | 338 | 0.0 | 0.0 | 0.00 | 0.00 | 0.00 | 99 | 1012.1 |
| 20260506024526 | 2 | 338 | 0.0 | 0.0 | 0.00 | 0.00 | 0.00 | 99 | 1012.2 |
| 20260506023519 | 2 | 338 | 0.0 | 0.0 | 0.00 | 0.00 | 0.00 | 99 | 1012.1 |
| 20260506022512 | 2 | 338 | 0.0 | 0.0 | 0.00 | 0.00 | 0.00 | 99 | 1012.1 |
| 20260506021506 | 2 | 338 | 0.0 | 0.0 | 0.00 | 0.00 | 0.00 | 99 | 1012.1 |
| 20260506020458 | 2 | 338 | 0.0 | 0.0 | 0.00 | 0.00 | 0.00 | 99 | 1012.1 |
| 20260506015452 | 2 | 338 | 0.0 | 0.0 | 0.00 | 0.00 | 0.00 | 99 | 1012.2 |
| 20260506014449 | 3 | 338 | 0.0 | 0.0 | 0.00 | 0.00 | 0.00 | 99 | 1012.1 |
| 20260506013438 | 3 | 338 | 0.0 | 0.0 | 0.00 | 0.00 | 0.00 | 99 | 1012.2 |
| 20260506012432 | 2 | 338 | 0.0 | 0.0 | 0.00 | 0.00 | 0.00 | 99 | 1012.2 |
| 20260506011423 | 3 | 338 | 0.0 | 0.0 | 0.00 | 0.00 | 0.00 | 99 | 1012.1 |
| 20260506010416 | 2 | 338 | 0.0 | 0.0 | 0.00 | 0.00 | 0.00 | 99 | 1012.2 |
| 20260506005412 | 2 | 338 | 0.0 | 0.0 | 0.00 | 0.00 | 0.00 | 99 | 1012.2 |
| 20260506004403 | 3 | 338 | 0.0 | 0.0 | 0.00 | 0.00 | 0.00 | 99 | 1012.2 |
| 20260506003356 | 3 | 338 | 0.0 | 0.0 | 0.00 | 0.00 | 0.00 | 99 | 1012.3 |
| 20260506002352 | 3 | 338 | 0.0 | 0.0 | 0.00 | 0.00 | 0.00 | 97 | 1012.2 |
| 20260506001343 | 3 | 338 | 0.0 | 0.0 | 0.00 | 0.00 | 0.00 | 96 | 1012.2 |
| 20260506000336 | 3 | 338 | 0.0 | 0.0 | 0.00 | 0.00 | 0.00 | 95 | 1012.2 |
| 20260505235332 | 4 | 338 | 0.0 | 0.0 | 0.00 | 0.00 | 0.00 | 95 | 1012.2 |
| 20260505234322 | 4 | 338 | 0.0 | 0.0 | 0.00 | 0.00 | 0.00 | 95 | 1012.2 |
| 20260505233315 | 5 | 338 | 0.0 | 0.0 | 0.00 | 0.00 | 0.00 | 96 | 1012.3 |
| 20260505232309 | 4 | 338 | 0.0 | 0.0 | 0.00 | 0.00 | 0.00 | 94 | 1012.2 |
| 20260505231301 | 4 | 338 | 0.0 | 0.0 | 0.00 | 0.00 | 0.00 | 89 | 1012.4 |
| 20260505230254 | 4 | 338 | 0.0 | 0.0 | 0.00 | 0.00 | 0.00 | 87 | 1012.4 |
| 20260505225249 | 5 | 338 | 0.0 | 0.0 | 0.00 | 0.00 | 0.00 | 87 | 1012.4 |
| 20260505224240 | 5 | 338 | 0.0 | 0.0 | 0.00 | 0.00 | 0.00 | 87 | 1012.3 |
| 20260505223233 | 5 | 338 | 0.0 | 0.0 | 0.00 | 0.00 | 0.00 | 85 | 1012.4 |
| 20260505222229 | 5 | 338 | 0.0 | 0.0 | 0.00 | 0.00 | 0.00 | 85 | 1012.5 |
| 20260505221219 | 5 | 338 | 0.0 | 0.0 | 0.00 | 0.05 | 0.00 | 83 | 1012.4 |
| 20260505220212 | 5 | 270 | 0.0 | 0.0 | 0.00 | 0.05 | 0.00 | 82 | 1012.4 |
| 20260505215205 | 6 | 270 | 0.0 | 0.0 | 0.00 | 0.10 | 0.05 | 82 | 1012.3 |
| 20260505214159 | 6 | 270 | 0.0 | 0.0 | 0.00 | 0.15 | 0.05 | 81 | 1012.5 |
| 20260505213151 | 6 | 270 | 0.0 | 0.0 | 0.00 | 0.15 | 0.05 | 80 | 1012.6 |
| 20260505212145 | 6 | 270 | 0.0 | 0.0 | 0.00 | 0.46 | 0.05 | 79 | 1012.4 |
| 20260505211138 | 6 | 270 | 0.0 | 0.0 | 0.00 | 0.46 | 0.05 | 78 | 1012.2 |
| 20260505210131 | 6 | 270 | 0.0 | 0.0 | 0.00 | 0.46 | 0.05 | 75 | 1012.2 |
| 20260505205124 | 6 | 293 | 0.0 | 0.0 | 0.00 | 0.46 | 0.05 | 74 | 1012.2 |
| 20260505204117 | 6 | 315 | 0.0 | 4.8 | 0.00 | 0.46 | 0.05 | 72 | 1012.1 |
| 20260505203110 | 6 | 338 | 1.6 | 11.3 | 0.00 | 0.46 | 0.05 | 71 | 1011.9 |
| 20260505202103 | 6 | 338 | 0.0 | 6.4 | 0.00 | 0.46 | 0.05 | 68 | 1011.8 |
| 20260505201056 | 7 | 293 | 0.0 | 4.8 | 0.00 | 0.46 | 0.05 | 67 | 1011.9 |
| 20260505200049 | 7 | 338 | 0.0 | 14.5 | 0.00 | 0.46 | 0.05 | 66 | 1011.6 |
| 20260505195043 | 7 | 315 | 3.2 | 14.5 | 0.00 | 0.46 | 0.05 | 65 | 1011.6 |
| 20260505193030 | 8 | 338 | 0.0 | 6.4 | 0.00 | 0.46 | 0.05 | 63 | 1011.3 |
| 20260505192023 | 8 | 338 | 0.0 | 8.0 | 0.00 | 0.46 | 0.05 | 62 | 1011.2 |
| 20260505191016 | 8 | 338 | 0.0 | 8.0 | 0.00 | 0.46 | 0.05 | 61 | 1011.0 |